This is the latest recevied weather packets stored in our database for station/object NE1CU. If no packets are shown the sender has not sent any weather packets the latest 10 day(s).
| Time | Temp. | Humidity | Pressure | Rain* | Wind** | Luminosity | Snow |
|---|---|---|---|---|---|---|---|
| 1777225931 | 12.78° C | 63% | 1020.5 hPa | 0 mm | - | 909 W/m² | - |
| 1777225627 | 12.22° C | 65% | 1020.3 hPa | 0 mm | - | 916 W/m² | - |
| 1777225324 | 12.22° C | 62% | 1020.1 hPa | 0 mm | - | 925 W/m² | - |
| 1777225021 | 12.22° C | 63% | 1020.3 hPa | 0 mm | - | 943 W/m² | - |
| 1777224718 | 12.22° C | 62% | 1020.4 hPa | 0 mm | - | 935 W/m² | - |
| 1777224413 | 12.22° C | 63% | 1020.3 hPa | 0 mm | - | 672 W/m² | - |
| 1777224109 | 12.78° C | 60% | 1020.2 hPa | 0 mm | - | 621 W/m² | - |
| 1777223807 | 12.78° C | 60% | 1020.3 hPa | 0 mm | - | 627 W/m² | - |
| 1777223502 | 12.78° C | 61% | 1020.3 hPa | 0 mm | - | 650 W/m² | - |
| 1777223200 | 12.78° C | 59% | 1020.4 hPa | 0 mm | - | 768 W/m² | - |
| 1777222898 | 12.78° C | 60% | 1020.3 hPa | 0 mm | - | 692 W/m² | - |
| 1777222595 | 12.78° C | 59% | 1020.3 hPa | 0 mm | - | 554 W/m² | - |
| 1777222292 | 13.33° C | 62% | 1020.4 hPa | 0 mm | - | 689 W/m² | - |
| 1777221991 | 13.33° C | 58% | 1020.3 hPa | 0 mm | - | 1022 W/m² | - |
| 1777221691 | 12.78° C | 61% | 1020.4 hPa | 0 mm | - | 728 W/m² | - |
| 1777221387 | 12.78° C | 61% | 1020.5 hPa | 0 mm | - | 727 W/m² | - |
| 1777221086 | 12.78° C | 61% | 1020.5 hPa | 0 mm | - | 608 W/m² | - |
| 1777220786 | 12.78° C | 62% | 1020.5 hPa | 0 mm | - | 751 W/m² | - |
| 1777220481 | 11.67° C | 63% | 1020.5 hPa | 0 mm | - | 700 W/m² | - |
| 1777220177 | 11.67° C | 64% | 1020.5 hPa | 0 mm | - | 489 W/m² | - |
| 1777219873 | 11.67° C | 62% | 1020.7 hPa | 0 mm | - | 442 W/m² | - |
| 1777219571 | 11.67° C | 64% | 1020.6 hPa | 0 mm | - | 447 W/m² | - |
| 1777219268 | 12.22° C | 60% | 1020.6 hPa | 0 mm | - | 482 W/m² | - |
| 1777218963 | 12.22° C | 63% | 1020.4 hPa | 0 mm | - | 605 W/m² | - |
| 1777218659 | 11.67° C | 60% | 1020.5 hPa | 0 mm | - | 556 W/m² | - |
* Rain latest hour (hover to see other rain measurements)
** Current wind speed in m/s (hover to see current wind gust speed)